Victoria, British Columbia

5:13 AM PDT on August 19, 2017 (GMT -0700)
Victoria International

Weather History for CYYJ - November, 2011

Change the Weather History Date:

Sunday, November 6, 2011

  Actual Average Record
Temperature  
Mean Temperature 38 °F -  
Max Temperature 45 °F 48 °F 64 °F (2014)
Min Temperature 31 °F 35 °F 24 °F (2003)
Degree Days  
Heating Degree Days 27    
Moisture  
Dew Point 35 °F    
Average Humidity 83    
Maximum Humidity 93    
Minimum Humidity 62    
Precipitation  
Precipitation 0.00 in 0.19 in - ()
Sea Level Pressure  
Sea Level Pressure 30.02 in    
Wind  
Wind Speed 4 mph ()    
Max Wind Speed 8 mph    
Max Gust Speed -    
Visibility 19.8 miles    
Events      
Averages and records for this station are not official NWS values.
T = Trace of Precipitation, MM = Missing Value Source: Averaged Metar Reports

Daily Weather History Graph

Daily Weather History Graph

Search for Another Location

Airport or City:

Trip Planner

Search our weather history database for the weather conditions in past years. The results will help you decide how hot, cold, wet, or windy it might be!

Date:

Astronomy

Nov. 06, 2011 Rise Set
Actual Time 7:07 AM PST 4:46 PM PST
Civil Twilight 6:34 AM PST 5:19 PM PST
Nautical Twilight 5:56 AM PST 5:57 PM PST
Astronomical Twilight 5:20 AM PST 6:33 PM PST
Moon 2:46 PM PST (11/6) 3:03 AM PST (11/6)
Length of Visible Light 10h 45m
Length of Day
9h 38m
Waxing Gibbous, 86% of the Moon is Illuminated
Nov 6
Waxing Gibbous
Nov 10
Full
Nov 18
Last Quarter
Nov 24
New
Dec 2
First Quarter

Hourly Weather History & Observations

Time (PST) Temp. Windchill Dew Point Humidity Pressure Visibility Wind Dir Wind Speed Gust Speed Precip Events Conditions
12:00 AM 37.4 °F 32.1 °F 33.8 °F 87% 29.88 in 30.0 mi West 6.9 mph - N/A   Scattered Clouds
1:00 AM 33.8 °F 29.6 °F 30.2 °F 87% 29.90 in 30.0 mi West 4.6 mph - N/A   Scattered Clouds
1:00 AM 33.8 °F 27.7 °F 32.0 °F 93% 29.90 in 30.0 mi WNW 6.9 mph - N/A   Scattered Clouds
2:00 AM 32.0 °F 25.6 °F 30.2 °F 93% 29.91 in 30.0 mi WNW 6.9 mph - N/A   Partly Cloudy
3:00 AM 35.6 °F 29.9 °F 33.8 °F 93% 29.92 in 30.0 mi WNW 6.9 mph - N/A   Partly Cloudy
4:00 AM 36 °F - 32 °F 81% 29.92 in 19 mi West 8.1 mph - -   Scattered Clouds
4:00 AM 35.6 °F 29.2 °F 32.0 °F 87% 29.92 in 20.0 mi West 8.1 mph - N/A   Scattered Clouds
5:00 AM 35.6 °F 29.9 °F 32.0 °F 87% 29.94 in 20.0 mi WNW 6.9 mph - N/A   Mostly Cloudy
6:00 AM 32.0 °F 27.5 °F 30.2 °F 93% 29.96 in 20.0 mi West 4.6 mph - N/A   Scattered Clouds
7:00 AM 33.8 °F - 30.2 °F 87% 29.97 in 20.0 mi SW 2.3 mph - N/A   Overcast
8:00 AM 33.8 °F - 32.0 °F 93% 29.99 in 20.0 mi SSW 2.3 mph - N/A   Mostly Cloudy
9:00 AM 41.0 °F 37.1 °F 35.6 °F 81% 30.00 in 30.0 mi WNW 5.8 mph - N/A   Mostly Cloudy
10:00 AM 42 °F - 36 °F 71% 30.02 in 28 mi West 4.6 mph - -   Scattered Clouds
10:00 AM 42.8 °F 40.1 °F 35.6 °F 76% 30.02 in 30.0 mi West 4.6 mph - N/A   Mostly Cloudy
11:00 AM 42.8 °F - 35.6 °F 76% 30.04 in 30.0 mi WNW 2.3 mph - N/A   Mostly Cloudy
12:00 PM 44.6 °F - 37.4 °F 76% 30.04 in 30.0 mi East 2.3 mph - N/A   Mostly Cloudy
1:00 PM 44.6 °F 43.1 °F 35.6 °F 71% 30.06 in 30.0 mi East 3.5 mph - N/A   Mostly Cloudy
2:00 PM 46.4 °F 45.2 °F 37.4 °F 71% 30.06 in 30.0 mi East 3.5 mph - N/A   Mostly Cloudy
3:00 PM 46.4 °F - 37.4 °F 71% 30.08 in 30.0 mi Calm Calm - N/A   Mostly Cloudy
4:00 PM 45 °F - 36 °F 62% 30.09 in 28 mi SSE 2.3 mph - -   Scattered Clouds
4:00 PM 44.6 °F - 35.6 °F 71% 30.09 in 30.0 mi SSE 2.3 mph - N/A   Mostly Cloudy
5:00 PM 41.0 °F - 35.6 °F 81% 30.10 in 30.0 mi Calm Calm - N/A   Scattered Clouds
6:00 PM 39.2 °F - 35.6 °F 87% 30.11 in 30.0 mi Calm Calm - N/A   Scattered Clouds
7:00 PM 39.2 °F - 37.4 °F 93% 30.13 in 30.0 mi West 2.3 mph - N/A   Mostly Cloudy
8:00 PM 41.0 °F - 37.4 °F 87% 30.14 in 30.0 mi Calm Calm - N/A   Mostly Cloudy
9:00 PM 41.0 °F - 37.4 °F 87% 30.16 in 30.0 mi NNW 2.3 mph - N/A   Mostly Cloudy
10:00 PM 41 °F - 38 °F 84% 30.17 in 28 mi Calm Calm - -   Overcast
10:00 PM 41.0 °F - 37.4 °F 87% 30.17 in 30.0 mi Calm Calm - N/A   Overcast